Weather in Colva

India     15°16′44″N   73°55′21″E
temp.,
°C
wind,
m/s
gust,
m/s
humid.,
%
clouds,
%
prec.,
mm/h
press.,
hPa
HPBL,
m
6 march, sat
sat623:30+23ne11850 0.0 101464
02:30+22e11860 0.0 101238
05:30+21e12870 0.0 101235
08:30+27ese12684 0.0 1015226
11:30+33w32443 0.0 10151125
14:30+32w55510 0.0 1011659
17:30+29wnw45640 0.0 1010669
20:30+25nnw23830 0.0 1012114
7 march, sun
sun723:30+23ene12890 0.0 101392
02:30+22e12920 0.0 101146
05:30+21ene11920 0.0 101051
08:30+26e01650 0.0 1013230
11:30+33wsw32370 0.0 1013810
14:30+32w55420 0.0 1009522
17:30+30nw57510 0.0 1007556
20:30+25nnw25730 0.0 1010151
8 march, mon
mon823:30+23nne12730 0.0 101170
02:30+21e11740 0.0 100953
05:30+20ene11730 0.0 100949
08:30+27se12430 0.0 1012192
11:30+36wsw32261 0.0 1012895
14:30+33wsw55350 0.0 1009553
17:30+30wnw35440 0.0 1008411
20:30+25nnw12720 0.0 101063
9 march, tue
tue923:30+23n11690 0.0 101162
02:30+22se11660 0.0 101034
05:30+21sse12670 0.0 101055
08:30+27ese11460 0.0 1013184
11:30+34wsw33330 0.0 1013775
14:30+33wsw55410 0.0 1009596
17:30+29wnw44570 0.0 1008499
20:30+24nnw23800 0.0 101174
10 march, wed
wed1023:30+23ne11860 0.0 101262
02:30+22se12840 0.0 101036
05:30+21ese12810 0.0 101041
08:30+27sse11520 0.0 1013187
11:30+34wsw42380 0.0 1013768
14:30+33w55380 0.0 1008552
17:30+30wnw46550 0.0 1007519
20:30+25nw12810 0.0 101070